Regional Weather Roundup
Issued by NWS

Home | Current Version | Previous Version | Text Only | Print | Product List | Glossary On
Versions: 1 2 3 4 5 6 7 8 9 10 11 12 13 14 15 16 17 18 19 20 21 22 23 24 25 26 27 28 29 30 31 32 33 34 35 36 37 38 39 40 41 42 43 44 45 46 47 48 49 50
000
ASUS42 KFFC 221703
RWRGA
WEATHER ROUNDUP FOR GEORGIA
NATIONAL WEATHER SERVICE PEACHTREE CITY GA
100 PM EDT FRI AUG 22 2014

NOTE: "FAIR" INDICATES FEW OR NO CLOUDS BELOW 12,000 FEET WITH NO
SIGNIFICANT WEATHER AND/OR OBSTRUCTIONS TO VISIBILITY.

* = USE WITH CAUTION. THE STATIONS MARKED WITH AN ASTERISK MAY NOT
REPORT WEATHER SUCH AS PRECIPITATION, FOG, OR THUNDER AND ARE NOT
QUALITY CONTROLLED BY NWS.

THE REMARK "TC" DENOTES TEMPERATURE READING IN DEGREES CELSIUS.

GAZ001>058-221800-
NORTH GEORGIA

CITY           SKY/WX    TMP DP  RH WIND       PRES   REMARKS
ATLANTA        MOSUNNY   89  72  56 N12       30.12F HX  96
ATHENS         MOSUNNY   93  69  45 NW8G17    30.09F HX  98
CHAMBLEE       MOSUNNY   90  70  51 NW10G18   30.12F HX  95
PEACHTREE CITY SUNNY     91  73  55 W7        30.12F HX  99
ROME           PTSUNNY   92  73  53 N8        30.10F HX 100
WEST ATLANTA   MOSUNNY   90  72  55 NW10      30.11F HX  97
GAINESVILLE    MOSUNNY   88  70  55 N10       30.14F HX  93
CARTERSVILLE   SUNNY     91  71  51 N8        30.11F HX  97


CITY           SKY/WX    TMP DP  RH WIND       PRES   REMARKS
DALTON*        PTSUNNY   88  72  58 NW6       30.11F HX  94
LAWRENCEVILLE* MOSUNNY   90  68  48 NW9       30.12F HX  93
MARIETTA       PTSUNNY   89  72  57 W14       30.13F HX  96
KENNESAW*      MOSUNNY   88  70  55 NW10      30.14F HX  92
$$

GAZ059>098-102>109-221800-
CENTRAL GEORGIA

CITY           SKY/WX    TMP DP  RH WIND       PRES   REMARKS
AUGUSTA-BUSH   SUNNY     96  69  41 W12       30.03F HX 102
AUGUSTA-DANIEL SUNNY     96  69  41 NW9       30.06F HX 102
COLUMBUS       MOSUNNY   94  70  45 N8        30.09F HX 100
MACON          MOSUNNY   93  70  46 VRB6      30.08F HX  99
ROBINS AFB     MOSUNNY   95  71  45 N7        30.07F HX 102


CITY           SKY/WX    TMP DP  RH WIND       PRES   REMARKS
LAGRANGE*      MOSUNNY   95  76  53 NW9       30.11F HX 108
SYLVANIA*      SUNNY     96  74  49 NW8       30.06S HX 106
MILLEDGEVILLE* SUNNY     95  73  49 NW9       30.08F HX 105
$$

GAZ099>101-110>166-221800-
SOUTH GEORGIA

CITY           SKY/WX    TMP DP  RH WIND       PRES   REMARKS
SAVANNAH       MOSUNNY   97  72  44 W8        30.04F HX 105
VALDOSTA       SUNNY     96  69  41 N12       30.08F HX 102
ALMA           SUNNY     94  71  47 W7        30.07F HX 101
ST SIMONS      SUNNY     95  71  45 VRB7      30.05F HX 102
FT STEWART     MOSUNNY   97  71  42 VRB6G16   30.04F HX 104
ALBANY         MOSUNNY   94  73  50 VRB6      30.11F HX 103
HUNTER AFB     SUNNY     96  73  46 NW9       30.02F HX 105
MOODY AFB      SUNNY     92  72  51 N10       30.09F HX  99
BRUNSWICK      SUNNY     97  68  38 NW6       30.06F HX 101


CITY           SKY/WX    TMP DP  RH WIND       PRES   REMARKS
BAINBRIDGE*    PTSUNNY   95  73  49 N6        30.09F HX 105
MOULTRIE*      MOSUNNY   91  70  49 N7        30.10F HX  97
VIDALIA*         N/A     95  73  49 NW8       30.07F HX 105
WAYCROSS*      SUNNY     97  77  52 N7        30.07F HX 111
DOUGLAS*       SUNNY     97  68  38 NW9       30.09F HX 101
$$



USA.gov is the U.S. government's official web portal to all federal, state and local government web resources and services.